Time,TemperatureF,DewpointF,PressureIn,WindDirection,WindDirectionDegrees,WindSpeedMPH,WindSpeedGustMPH,Humidity,HourlyPrecipIn,Conditions,Clouds,dailyrainin,SoftwareType,DateUTC
2013-10-02 00:14:00,61.2,59.0,29.96,SE,128,0.0,-999.0,93,-99.99,,,0.01,weatherlink.com 1.10,2013-10-02 04:14:00,
2013-10-02 00:29:00,61.0,59.0,29.96,SE,128,0.0,-999.0,93,-99.99,,,0.01,weatherlink.com 1.10,2013-10-02 04:29:00,
2013-10-02 00:44:00,60.7,59.0,29.96,SE,128,0.0,-999.0,93,-99.99,,,0.01,weatherlink.com 1.10,2013-10-02 04:44:00,
2013-10-02 00:59:00,60.5,59.0,29.96,SE,128,0.0,-999.0,94,-99.99,,,0.00,weatherlink.com 1.10,2013-10-02 04:59:00,
2013-10-02 01:14:00,60.4,59.0,29.96,SE,128,0.0,-999.0,94,-99.99,,,0.00,weatherlink.com 1.10,2013-10-02 05:14:00,
2013-10-02 01:29:00,60.2,59.0,29.96,SE,128,0.0,-999.0,94,-99.99,,,0.00,weatherlink.com 1.10,2013-10-02 05:29:00,
2013-10-02 01:45:00,60.1,59.0,29.96,SE,128,0.0,-999.0,95,-99.99,,,0.00,weatherlink.com 1.10,2013-10-02 05:45:00,
2013-10-02 02:00:00,59.9,59.0,29.96,SE,128,0.0,-999.0,95,-99.99,,,0.00,weatherlink.com 1.10,2013-10-02 06:00:00,
2013-10-02 02:15:00,59.8,58.0,29.96,SE,128,0.0,-999.0,95,-99.99,,,0.00,weatherlink.com 1.10,2013-10-02 06:15:00,
2013-10-02 02:30:00,59.6,58.0,29.96,SE,128,0.0,-999.0,95,-99.99,,,0.00,weatherlink.com 1.10,2013-10-02 06:30:00,
2013-10-02 02:45:00,59.3,58.0,29.96,SE,128,0.0,-999.0,95,-99.99,,,0.00,weatherlink.com 1.10,2013-10-02 06:45:00,
2013-10-02 03:00:00,59.2,58.0,29.96,SE,128,0.0,-999.0,95,-99.99,,,0.00,weatherlink.com 1.10,2013-10-02 07:00:00,
2013-10-02 03:15:00,58.9,58.0,29.96,SE,128,0.0,-999.0,95,-99.99,,,0.00,weatherlink.com 1.10,2013-10-02 07:15:00,
2013-10-02 03:30:00,58.7,58.0,29.95,SE,128,0.0,-999.0,96,-99.99,,,0.00,weatherlink.com 1.10,2013-10-02 07:30:00,
2013-10-02 03:45:00,58.7,58.0,29.95,SE,128,0.0,-999.0,96,-99.99,,,0.00,weatherlink.com 1.10,2013-10-02 07:45:00,
2013-10-02 04:00:00,58.6,58.0,29.95,SE,128,0.0,-999.0,96,-99.99,,,0.00,weatherlink.com 1.10,2013-10-02 08:00:00,
2013-10-02 04:15:00,58.6,58.0,29.95,SE,128,0.0,-999.0,96,-99.99,,,0.00,weatherlink.com 1.10,2013-10-02 08:15:00,
2013-10-02 04:30:00,58.4,57.0,29.95,SE,128,0.0,-999.0,96,-99.99,,,0.00,weatherlink.com 1.10,2013-10-02 08:30:00,
2013-10-02 04:45:00,58.3,57.0,29.95,SE,128,0.0,-999.0,96,-99.99,,,0.00,weatherlink.com 1.10,2013-10-02 08:45:00,
2013-10-02 05:00:00,58.0,57.0,29.95,SE,128,0.0,-999.0,96,-99.99,,,0.00,weatherlink.com 1.10,2013-10-02 09:00:00,
2013-10-02 05:15:00,58.0,57.0,29.95,SE,128,0.0,-999.0,96,-99.99,,,0.00,weatherlink.com 1.10,2013-10-02 09:15:00,
2013-10-02 05:30:00,57.8,57.0,29.95,SE,128,0.0,-999.0,96,-99.99,,,0.00,weatherlink.com 1.10,2013-10-02 09:30:00,
2013-10-02 05:45:00,57.6,57.0,29.96,SE,128,0.0,-999.0,96,-99.99,,,0.00,weatherlink.com 1.10,2013-10-02 09:45:00,
2013-10-02 06:00:00,57.5,56.0,29.96,SE,128,0.0,-999.0,96,-99.99,,,0.00,weatherlink.com 1.10,2013-10-02 10:00:00,
2013-10-02 06:15:00,57.2,56.0,29.97,SE,128,0.0,-999.0,96,-99.99,,,0.00,weatherlink.com 1.10,2013-10-02 10:15:00,
2013-10-02 06:30:00,57.0,56.0,29.97,SE,128,0.0,-999.0,96,-99.99,,,0.00,weatherlink.com 1.10,2013-10-02 10:30:00,
2013-10-02 06:45:00,56.9,56.0,29.97,SE,128,0.0,-999.0,97,-99.99,,,0.00,weatherlink.com 1.10,2013-10-02 10:45:00,
2013-10-02 07:00:00,56.9,56.0,29.98,SE,128,0.0,-999.0,97,-99.99,,,0.00,weatherlink.com 1.10,2013-10-02 11:00:00,
2013-10-02 07:15:00,56.7,56.0,29.98,SE,128,0.0,-999.0,97,-99.99,,,0.00,weatherlink.com 1.10,2013-10-02 11:15:00,
2013-10-02 07:30:00,56.6,56.0,29.99,SE,128,0.0,-999.0,97,-99.99,,,0.01,weatherlink.com 1.10,2013-10-02 11:30:00,
2013-10-02 07:45:00,56.7,56.0,29.99,SE,128,0.0,-999.0,97,-99.99,,,0.01,weatherlink.com 1.10,2013-10-02 11:45:00,
2013-10-02 08:00:00,57.3,57.0,29.99,SE,128,0.0,-999.0,98,-99.99,,,0.01,weatherlink.com 1.10,2013-10-02 12:00:00,
2013-10-02 08:15:00,58.3,58.0,30.00,SE,128,0.0,-999.0,98,-99.99,,,0.01,weatherlink.com 1.10,2013-10-02 12:15:00,
2013-10-02 08:30:00,61.8,61.0,30.00,SE,128,0.0,-999.0,98,-99.99,,,0.01,weatherlink.com 1.10,2013-10-02 12:30:00,
2013-10-02 08:45:00,64.2,63.0,30.00,SE,128,0.0,-999.0,95,-99.99,,,0.01,weatherlink.com 1.10,2013-10-02 12:45:00,
2013-10-02 09:00:00,66.4,64.0,30.00,SE,128,0.0,-999.0,92,-99.99,,,0.01,weatherlink.com 1.10,2013-10-02 13:00:00,
2013-10-02 09:15:00,68.8,65.0,30.01,SE,128,0.0,-999.0,87,-99.99,,,0.01,weatherlink.com 1.10,2013-10-02 13:15:00,
2013-10-02 09:30:00,69.8,65.0,30.01,SE,128,0.0,-999.0,85,-99.99,,,0.01,weatherlink.com 1.10,2013-10-02 13:30:00,
2013-10-02 09:45:00,71.5,67.0,30.01,SE,128,0.0,-999.0,84,-99.99,,,0.01,weatherlink.com 1.10,2013-10-02 13:45:00,
2013-10-02 10:00:00,71.8,65.0,30.01,SE,128,0.0,-999.0,80,-99.99,,,0.01,weatherlink.com 1.10,2013-10-02 14:00:00,
2013-10-02 10:16:00,73.5,66.0,30.01,SE,128,0.0,-999.0,76,-99.99,,,0.01,weatherlink.com 1.10,2013-10-02 14:16:00,
2013-10-02 10:30:00,74.6,65.0,30.01,SE,128,0.0,-999.0,72,-99.99,,,0.01,weatherlink.com 1.10,2013-10-02 14:30:00,
2013-10-02 10:46:00,75.3,65.0,30.01,SE,127,0.0,-999.0,71,-99.99,,,0.01,weatherlink.com 1.10,2013-10-02 14:46:00,
2013-10-02 11:01:00,76.3,65.0,30.01,SE,127,0.0,-999.0,69,-99.99,,,0.01,weatherlink.com 1.10,2013-10-02 15:01:00,
2013-10-02 11:16:00,77.0,63.0,30.01,SE,127,0.0,-999.0,63,-99.99,,,0.01,weatherlink.com 1.10,2013-10-02 15:16:00,
2013-10-02 11:31:00,78.1,64.0,30.00,SE,128,0.0,-999.0,62,-99.99,,,0.01,weatherlink.com 1.10,2013-10-02 15:31:00,
2013-10-02 11:46:00,78.5,64.0,30.00,SE,130,0.0,-999.0,61,-99.99,,,0.01,weatherlink.com 1.10,2013-10-02 15:46:00,
2013-10-02 12:01:00,78.6,62.0,30.00,SE,143,0.0,-999.0,58,-99.99,,,0.01,weatherlink.com 1.10,2013-10-02 16:01:00,
2013-10-02 12:16:00,79.4,61.0,30.00,SE,143,0.0,-999.0,53,-99.99,,,0.01,weatherlink.com 1.10,2013-10-02 16:16:00,
2013-10-02 12:31:00,80.7,62.0,29.99,SE,143,0.0,-999.0,53,-99.99,,,0.01,weatherlink.com 1.10,2013-10-02 16:31:00,
2013-10-02 12:46:00,81.8,64.0,29.99,SSW,206,0.0,-999.0,55,-99.99,,,0.01,weatherlink.com 1.10,2013-10-02 16:46:00,
2013-10-02 13:01:00,81.1,60.0,29.98,East,89,0.0,-999.0,49,-99.99,,,0.01,weatherlink.com 1.10,2013-10-02 17:01:00,
2013-10-02 13:16:00,81.8,59.0,29.98,South,169,0.0,-999.0,46,-99.99,,,0.01,weatherlink.com 1.10,2013-10-02 17:16:00,
2013-10-02 13:31:00,83.6,61.0,29.97,SSE,167,0.0,-999.0,47,-99.99,,,0.01,weatherlink.com 1.10,2013-10-02 17:31:00,
2013-10-02 13:46:00,84.0,62.0,29.96,East,99,0.0,-999.0,47,-99.99,,,0.01,weatherlink.com 1.10,2013-10-02 17:46:00,
2013-10-02 14:01:00,82.8,61.0,29.95,East,99,0.0,-999.0,48,-99.99,,,0.01,weatherlink.com 1.10,2013-10-02 18:01:00,
2013-10-02 14:16:00,83.6,59.0,29.95,East,100,0.0,-999.0,44,-99.99,,,0.01,weatherlink.com 1.10,2013-10-02 18:16:00,
2013-10-02 14:31:00,83.8,62.0,29.94,SE,127,0.0,-999.0,48,-99.99,,,0.01,weatherlink.com 1.10,2013-10-02 18:31:00,
2013-10-02 14:46:00,83.8,58.0,29.94,ENE,66,0.0,-999.0,42,-99.99,,,0.01,weatherlink.com 1.10,2013-10-02 18:46:00,
2013-10-02 15:01:00,84.0,58.0,29.94,ENE,66,0.0,-999.0,41,-99.99,,,0.01,weatherlink.com 1.10,2013-10-02 19:01:00,
2013-10-02 15:16:00,84.3,58.0,29.93,SSE,161,0.0,-999.0,41,-99.99,,,0.01,weatherlink.com 1.10,2013-10-02 19:16:00,
2013-10-02 15:31:00,84.9,60.0,29.93,South,178,0.0,-999.0,43,-99.99,,,0.01,weatherlink.com 1.10,2013-10-02 19:31:00,
2013-10-02 15:46:00,84.7,60.0,29.93,SSE,162,0.0,-999.0,43,-99.99,,,0.01,weatherlink.com 1.10,2013-10-02 19:46:00,
2013-10-02 16:01:00,85.3,60.0,29.92,SSE,162,0.0,-999.0,43,-99.99,,,0.01,weatherlink.com 1.10,2013-10-02 20:01:00,
2013-10-02 16:16:00,85.3,60.0,29.92,SSE,162,0.0,-999.0,42,-99.99,,,0.01,weatherlink.com 1.10,2013-10-02 20:16:00,
2013-10-02 16:31:00,86.7,62.0,29.92,SSE,162,0.0,-999.0,44,-99.99,,,0.01,weatherlink.com 1.10,2013-10-02 20:31:00,
2013-10-02 17:01:00,86.1,61.0,29.92,SSW,193,0.0,-999.0,43,-99.99,,,0.01,weatherlink.com 1.10,2013-10-02 21:01:00,
2013-10-02 17:16:00,86.3,59.0,29.92,SSW,192,0.0,-999.0,40,-99.99,,,0.01,weatherlink.com 1.10,2013-10-02 21:16:00,
2013-10-02 17:31:00,86.5,62.0,29.92,SSW,192,0.0,-999.0,44,-99.99,,,0.01,weatherlink.com 1.10,2013-10-02 21:31:00,
2013-10-02 17:46:00,86.1,63.0,29.93,SSW,192,0.0,-999.0,46,-99.99,,,0.01,weatherlink.com 1.10,2013-10-02 21:46:00,
2013-10-02 18:01:00,86.1,63.0,29.93,North,-999,-999.0,-999.0,46,-99.99,,,0.01,weatherlink.com 1.10,2013-10-02 22:01:00,
2013-10-02 18:16:00,84.7,65.0,29.93,SSW,192,0.0,-999.0,51,-99.99,,,0.01,weatherlink.com 1.10,2013-10-02 22:16:00,
2013-10-02 18:31:00,84.7,65.0,29.93,SSW,192,0.0,-999.0,52,-99.99,,,0.01,weatherlink.com 1.10,2013-10-02 22:31:00,
2013-10-02 18:46:00,84.7,65.0,29.93,SSW,192,0.0,-999.0,52,-99.99,,,0.01,weatherlink.com 1.10,2013-10-02 22:46:00,
2013-10-02 19:01:00,76.1,65.0,29.94,SSW,192,0.0,-999.0,69,-99.99,,,0.01,weatherlink.com 1.10,2013-10-02 23:01:00,
2013-10-02 19:17:00,74.0,65.0,29.95,SSW,192,0.0,-999.0,73,-99.99,,,0.01,weatherlink.com 1.10,2013-10-02 23:17:00,
2013-10-02 19:32:00,72.5,64.0,29.95,SSW,192,0.0,-999.0,75,-99.99,,,0.01,weatherlink.com 1.10,2013-10-02 23:32:00,
2013-10-02 19:46:00,70.9,63.0,29.95,SSW,192,0.0,-999.0,76,-99.99,,,0.01,weatherlink.com 1.10,2013-10-02 23:46:00,
2013-10-02 20:01:00,69.8,63.0,29.95,SSW,192,0.0,-999.0,79,-99.99,,,0.01,weatherlink.com 1.10,2013-10-03 00:01:00,
2013-10-02 20:16:00,68.8,62.0,29.96,SSW,192,0.0,-999.0,79,-99.99,,,0.01,weatherlink.com 1.10,2013-10-03 00:16:00,
2013-10-02 20:31:00,67.9,62.0,29.96,SSW,192,0.0,-999.0,81,-99.99,,,0.01,weatherlink.com 1.10,2013-10-03 00:31:00,
2013-10-02 20:46:00,67.3,62.0,29.96,SSW,192,0.0,-999.0,83,-99.99,,,0.01,weatherlink.com 1.10,2013-10-03 00:46:00,
2013-10-02 21:02:00,66.8,62.0,29.96,SSW,192,0.0,-999.0,85,-99.99,,,0.01,weatherlink.com 1.10,2013-10-03 01:02:00,
2013-10-02 21:16:00,66.3,62.0,29.96,SSW,192,0.0,-999.0,85,-99.99,,,0.01,weatherlink.com 1.10,2013-10-03 01:16:00,
2013-10-02 21:31:00,65.8,62.0,29.97,SSW,192,0.0,-999.0,87,-99.99,,,0.01,weatherlink.com 1.10,2013-10-03 01:31:00,
2013-10-02 21:46:00,65.5,62.0,29.97,SSW,192,0.0,-999.0,88,-99.99,,,0.01,weatherlink.com 1.10,2013-10-03 01:46:00,
2013-10-02 22:02:00,65.0,62.0,29.97,SSW,192,0.0,-999.0,89,-99.99,,,0.01,weatherlink.com 1.10,2013-10-03 02:02:00,
2013-10-02 22:16:00,64.5,61.0,29.97,SSW,192,0.0,-999.0,89,-99.99,,,0.01,weatherlink.com 1.10,2013-10-03 02:16:00,
2013-10-02 22:32:00,64.0,61.0,29.98,SSW,192,0.0,-999.0,90,-99.99,,,0.01,weatherlink.com 1.10,2013-10-03 02:32:00,
2013-10-02 22:47:00,63.5,61.0,29.98,SSW,192,0.0,-999.0,90,-99.99,,,0.01,weatherlink.com 1.10,2013-10-03 02:47:00,
2013-10-02 23:01:00,63.1,61.0,29.98,SSW,192,0.0,-999.0,91,-99.99,,,0.01,weatherlink.com 1.10,2013-10-03 03:01:00,
2013-10-02 23:16:00,62.7,60.0,29.98,SSW,192,0.0,-999.0,92,-99.99,,,0.01,weatherlink.com 1.10,2013-10-03 03:16:00,
2013-10-02 23:31:00,62.6,60.0,29.98,SSW,192,0.0,-999.0,92,-99.99,,,0.01,weatherlink.com 1.10,2013-10-03 03:31:00,
2013-10-02 23:46:00,62.3,60.0,29.98,SSW,192,0.0,-999.0,92,-99.99,,,0.01,weatherlink.com 1.10,2013-10-03 03:46:00,